Change the Weather History Date:

Thursday, August 29, 2013

  Actual Average Record
Temperature  
Mean Temperature 74 °F -  
Max Temperature 81 °F 83 °F 86 °F (2001)
Min Temperature 68 °F 67 °F 55 °F (1955)
Cooling Degree Days 10    
Growing Degree Days 24 (Base 50)    
Moisture  
Dew Point 67 °F    
Average Humidity 77    
Maximum Humidity 94    
Minimum Humidity 61    
Precipitation  
Precipitation 0.00 in - - ()
Sea Level Pressure  
Sea Level Pressure 29.95 in    
Wind  
Wind Speed 7 mph (NE)    
Max Wind Speed 17 mph    
Max Gust Speed -    
Visibility 10 miles    
Events Rain    
Averages and records for this station are not official NWS values.
T = Trace of Precipitation, MM = Missing Value Source: NWS Daily Summary

Daily Weather History Graph

Daily Weather History Graph

Search for Another Location

Airport or City:

Trip Planner

Search our weather history database for the weather conditions in past years. The results will help you decide how hot, cold, wet, or windy it might be!

Date:

Astronomy

Aug. 29, 2013 Rise Set
Actual Time 6:11 AM HST 6:45 PM HST
Civil Twilight 5:48 AM HST 7:08 PM HST
Nautical Twilight 5:22 AM HST 7:34 PM HST
Astronomical Twilight 4:55 AM HST 8:01 PM HST
Moon 12:33 AM HST (8/29) 2:01 PM HST (8/29)
Length of Visible Light 13h 19m
Length of Day
12h 34m
Waning Crescent, 36% of the Moon is Illuminated
Aug 29
Waning Crescent
Sep 5
New
Sep 12
First Quarter
Sep 19
Full
Sep 26
Last Quarter

Hourly Weather History & Observations

Time (HST) Temp. Heat Index Dew Point Humidity Pressure Visibility Wind Dir Wind Speed Gust Speed Precip Events Conditions
12:56 AM 70.9 °F - 64.9 °F 81% 29.92 in 10.0 mi East 6.9 mph - N/A   Clear
1:56 AM 70.0 °F - 65.8 °F 87% 29.91 in 10.0 mi ENE 8.1 mph - N/A   Clear
2:56 AM 68.9 °F - 65.8 °F 90% 29.90 in - ENE 5.8 mph - N/A   Clear
3:56 AM 70.9 °F - 68.0 °F 91% 29.89 in 10.0 mi NE 10.4 mph - N/A   Partly Cloudy
4:56 AM 70.0 °F - 64.9 °F 84% 29.90 in 10.0 mi NE 8.1 mph - N/A   Mostly Cloudy
5:56 AM 68.9 °F - 64.9 °F 87% 29.92 in - East 5.8 mph - N/A   Mostly Cloudy
6:56 AM 72.0 °F - 68.0 °F 87% 29.94 in - SSE 4.6 mph - N/A   Clear
7:56 AM 75.9 °F - 66.9 °F 74% 29.94 in 10.0 mi South 3.5 mph - N/A   Partly Cloudy
8:33 AM 80.6 °F 82.7 °F 66.2 °F 61% 30.01 in 10.0 mi SW 4.6 mph - N/A   Mostly Cloudy
8:56 AM 77.9 °F - 68.0 °F 71% 29.95 in 10.0 mi WSW 5.8 mph - N/A   Mostly Cloudy
9:16 AM 78.8 °F - 68.0 °F 69% 30.02 in 10.0 mi Variable 4.6 mph - N/A   Mostly Cloudy
9:56 AM 79.0 °F - 68.0 °F 69% 29.95 in 10.0 mi Variable 5.8 mph - 0.00 in   Mostly Cloudy
10:56 AM 79.9 °F - 66.9 °F 64% 29.94 in 10.0 mi South 6.9 mph - 0.00 in   Overcast
11:56 AM 81.0 °F 83.3 °F 66.9 °F 62% 29.93 in 10.0 mi Variable 3.5 mph - N/A   Mostly Cloudy
12:56 PM 81.0 °F 83.3 °F 66.9 °F 62% 29.92 in 10.0 mi Variable 3.5 mph - N/A   Mostly Cloudy
1:56 PM 80.6 °F 82.7 °F 66.2 °F 61% 29.97 in 10.0 mi Variable 4.6 mph - N/A   Mostly Cloudy
2:56 PM 81.0 °F 84.1 °F 68.9 °F 67% 29.89 in 10.0 mi West 9.2 mph - N/A   Overcast
3:56 PM 79.0 °F - 68.0 °F 69% 29.89 in 10.0 mi WNW 6.9 mph - N/A   Overcast
4:20 PM 78.8 °F - 66.2 °F 65% 29.96 in 10.0 mi Variable 6.9 mph - N/A   Scattered Clouds
4:56 PM 79.0 °F - 66.9 °F 66% 29.89 in 10.0 mi NNE 15.0 mph - N/A   Clear
5:56 PM 77.0 °F - 66.9 °F 71% 29.91 in 10.0 mi NNE 15.0 mph - N/A   Clear
6:56 PM 73.9 °F - 66.9 °F 79% 29.92 in 10.0 mi NE 17.3 mph - N/A   Clear
7:56 PM 72.9 °F - 66.9 °F 82% 29.94 in 10.0 mi NNE 15.0 mph - N/A   Clear
8:56 PM 72.9 °F - 66.9 °F 82% 29.96 in 10.0 mi ENE 10.4 mph - N/A   Clear
9:46 PM 73.4 °F - 68.0 °F 83% 30.03 in - NE 6.9 mph - N/A   Mostly Cloudy
9:56 PM 73.9 °F - 68.0 °F 82% 29.96 in - NNE 8.1 mph - N/A   Mostly Cloudy
10:18 PM 73.4 °F - 68.0 °F 83% 30.04 in 10.0 mi NE 8.1 mph - N/A   Scattered Clouds
10:56 PM 72.9 °F - 68.0 °F 85% 29.96 in - NNE 8.1 mph - N/A   Mostly Cloudy
11:08 PM 71.6 °F - 66.2 °F 83% 30.03 in - NE 11.5 mph - 0.00 in Rain Light Rain
11:25 PM 71.6 °F - 69.8 °F 94% 30.03 in - Variable 4.6 mph - 0.00 in Rain Light Rain
11:56 PM 72.0 °F - 68.9 °F 90% 29.96 in 10.0 mi South 4.6 mph - 0.00 in   Mostly Cloudy